| Date | Temp | Humidity | Rainfall | Dew Point | Wind Direction | Wind Speed | Wind Pressure | Condition | Visibility |
|---|---|---|---|---|---|---|---|---|---|
| 2025-04-02 22:57:14 | 28 | 83 | 25 | 040 | 9.5 | 1011 | Partly Cloudy (Night) | 10 KM | |
| 2025-04-02 21:56:16 | 28 | 81 | 24 | 030 | 9.5 | 1011 | Partly Cloudy (Night) | 10 KM | |
| 2025-04-02 20:58:50 | 28 | 79 | 0.0 | 24 | 010 | 5.7 | 1010 | Cloudy | 10 KM |
| 2025-04-02 20:02:59 | 28 | 80 | 0.0 | 24 | 010 | 11.4 | 1010 | Cloudy | 10 KM |
| 2025-04-02 18:58:32 | 28 | 81 | 0.00 | 25 | 360 | 7.6 | 1009 | Cloudy | 10 KM |
| 2025-04-02 17:59:34 | 29 | 78 | 0.0 | 24 | 020 | 11.4 | 1009 | Cloudy | 20 KM |
| 2025-04-02 17:02:49 | 29 | 79 | 0.00 | 25 | 360 | 13.3 | 1008 | Thunderstorm | 15 KM |
| 2025-04-02 16:01:12 | 29 | 77 | 0.00 | 25 | 350 | 17.1 | 1008 | Distant showers | 15 KM |
| 2025-04-02 15:04:28 | 30 | 72 | 0.00 | 24 | 350 | 19.0 | 1009 | Distant showers | 15 KM |
| 2025-04-02 14:01:30 | 30 | 69 | 0.0 | 24 | 350 | 17.1 | 1009 | Cloudy | 20 KM |
| 2025-04-02 12:59:58 | 31 | 62 | 0.0 | 22 | 360 | 17.1 | 1010 | Partly Cloudy (Day) | 20 KM |
| 2025-04-02 12:00:55 | 31 | 63 | 0.0 | 23 | 350 | 15.2 | 1011 | Partly Cloudy (Day) | 20 KM |
| 2025-04-02 11:00:48 | 30 | 65 | 0.0 | 23 | 360 | 11.4 | 1012 | Partly Cloudy (Day) | 20 KM |
| 2025-04-02 09:59:58 | 30 | 65 | 22 | 050 | 3.8 | 1012 | Partly Cloudy (Day) | 20 KM | |
| 2025-04-02 09:00:19 | 28 | 72 | 23 | 200 | 3.8 | 1012 | Partly Cloudy (Day) | 15 KM | |
| 2025-04-02 07:57:31 | 26 | 86 | 23 | 160 | 7.6 | 1011 | Partly Cloudy (Day) | 15 KM | |
| 2025-04-02 06:57:14 | 24 | 93 | 23 | 170 | 3.8 | 1011 | Partly Cloudy (Day) | 10 KM | |
| 2025-04-02 05:58:03 | 24 | 23 | 200 | 11.4 | 1010 | Partly Cloudy (Night) | 10 KM | ||
| 2025-04-02 04:57:59 | 24 | 93 | 23 | 190 | 11.4 | 1010 | Partly Cloudy (Night) | 10 KM | |
| 2025-04-02 04:15:45 | 24 | 94 | 23 | 190 | 11.4 | 1010 | Partly Cloudy (Night) | 10 KM | |
| 2025-04-02 02:56:20 | 24 | 95 | 24 | 190 | 9.5 | 1010 | Partly Cloudy (Night) | 10 KM | |
| 2025-04-02 02:01:22 | 25 | 94 | 0.00 | 23 | 170 | 7.6 | 1011 | Rain | 10KM |
| 2025-04-02 01:01:35 | 24 | 97 | 0.00 | 24 | 160 | 7.6 | 1011 | Rain | 09KM |
| 2025-04-02 00:01:00 | 25 | 96 | 0.00 | 24 | 140 | 5.7 | 1012 | Rain | 08KM |
| 2025-04-01 23:01:26 | 25 | 96 | 0.00 | 25 | 070 | 3.8 | 1012 | Rain | 06LM |